Location: Mason Neck State Park
(38.6428°N, 77.1981°W)
Time: 03:45:14
(UTC-04:00)

Daily predictions for brighter satellites

Satellite Brightness Start Highest point End
(mag) Time Altitude Azimuth Time Altitude Azimuth Time Altitude Azimuth
Meteor 1-13 Rocket 4.4 00:00:30 10° NNW 00:06:14 68° W 00:06:14 68° W
USA 234 3.9 00:00:51 10° NE 00:07:09 52° NW 00:13:25 10° WSW
Cosmos 2082 Rocket 3.6 00:04:25 10° NW 00:08:58 27° W 00:08:58 27° W
Meteor 2-4 Rocket 4.0 00:05:22 10° N 00:09:56 58° NNE 00:09:56 58° NNE
Meteor 1-11 Rocket 4.1 00:17:27 61° WNW 00:17:27 61° WNW 00:23:06 10° N
Meteor 2-14 Rocket 4.4 00:20:08 78° NNW 00:20:08 78° NNW 00:25:56 10° N
Meteor 2-15 4.5 00:18:35 10° N 00:24:13 77° NNW 00:24:13 77° NNW
H-2A R/B 4.3 00:36:06 10° NNE 00:38:33 32° NNE 00:38:33 32° NNE
Cosmos 1605 Rocket 4.2 00:47:50 68° WNW 00:47:50 68° WNW 00:53:55 10° N
Cosmos 2285 Rocket 4.3 00:51:55 57° WNW 00:52:00 57° WNW 00:58:18 10° N
Cosmos 2369 Rocket 2.8 00:57:32 51° NW 00:57:32 51° NW 01:02:25 10° NNE
MOS 1-B Rocket 4.1 00:58:33 74° NNE 00:58:33 74° NNE 01:04:42 10° NNW
CZ-2C R/B 4.3 01:04:53 33° NE 01:04:53 33° NE 01:08:22 10° N
Cosmos 2173 Rocket 4.3 01:05:19 58° ENE 01:05:19 58° ENE 01:10:48 10° NNE
Lacrosse 5 3.3 01:09:48 34° NW 01:09:55 34° NW 01:14:33 10° NNE
CZ-2C R/B 3.5 01:06:58 10° NNE 01:10:38 45° NNE 01:10:38 45° NNE
NOSS 3-1 (A) 4.2 01:12:47 10° NW 01:19:56 58° WSW 01:19:56 58° WSW
Cosmos 968 Rocket 4.5 01:19:14 10° N 01:23:08 44° NNE 01:23:08 44° NNE
Cosmos 1943 Rocket 2.8 01:37:33 52° NNW 01:37:33 52° NNW 01:42:04 10° NNE
Cosmos 1818 4.4 01:38:10 47° NNW 01:38:10 47° NNW 01:42:42 10° NNE
Cosmos 2098 Rocket 4.4 01:41:51 60° E 01:41:51 60° E 01:49:09 10° NNE
ATLAS 2AS CENTAUR R/B 2.9 01:33:47 10° NNW 01:41:55 81° ENE 01:42:49 71° ESE
Lacrosse 5 rocket 4.2 01:48:45 10° NW 01:49:11 10° NNW 01:49:56 10° NNW
CZ-3B DEB 4.5 01:14:54 10° NW 01:49:31 75° SW 01:55:06 46° SSE
Cosmos 44 4.3 02:05:47 10° NNW 02:10:31 43° NE 02:10:31 43° NE
ISS 0.3 02:23:22 10° N 02:24:19 11° NNE 02:25:15 10° NNE
BREEZE-M DEB (TANK) 4.0 02:13:35 10° WNW 02:26:21 57° NNE 02:28:18 31° E
Cosmos 2233 Rocket 3.8 02:27:50 85° ENE 02:27:50 85° ENE 02:33:53 10° N
ATLAS CENTAUR R/B 3.2 02:43:06 30° E 02:43:06 30° E 02:46:49 10° NE
SeaSat 1 3.3 02:44:11 42° NW 02:44:11 42° NW 02:47:31 10° NNW
Cosmos 1697 Rocket 4.4 02:42:23 20° ESE 02:43:19 21° E 02:47:24 10° NE
Meteor 2-17 Rocket 4.3 02:45:29 74° W 02:45:33 74° W 02:51:41 10° N
Meteor 1-15 Rocket 4.2 02:45:49 74° WNW 02:45:49 74° WNW 02:51:34 10° N
Meteor 2-9 Rocket 4.4 02:47:36 64° WNW 02:47:36 64° WNW 02:53:12 10° N
Cosmos 1980 Rocket 4.4 02:49:34 12° ESE 02:51:30 14° E 02:54:13 10° ENE
Cosmos 2219 4.4 02:47:11 10° NW 02:50:27 29° WNW 02:50:27 29° WNW
IRS-P3 4.0 02:49:32 10° NNE 02:54:49 87° N 02:54:49 87° N
Cosmos 2227 Rocket 2.6 02:51:12 10° NNW 02:56:49 59° ENE 02:58:36 41° ESE
Meteor 2-5 Rocket 4.4 02:51:08 10° N 02:56:53 53° ENE 02:58:45 39° SE
Uosat 12 SS-18 rocket 4.5 02:54:10 10° NNW 02:58:24 72° NNW 02:58:24 72° NNW
Cosmos 1898 Rocket 4.2 02:57:19 10° N 03:02:33 52° ENE 03:04:20 37° ESE
CBERS 1 LM4 rocket 4.5 03:06:21 10° NNE 03:11:07 65° ESE 03:11:16 65° ESE
Cosmos 2278 3.6 03:12:02 71° WSW 03:12:28 75° WNW 03:18:09 10° NNE
Cosmos 2369 3.5 03:13:13 75° SW 03:13:42 84° WNW 03:19:24 10° NNE
Cosmos 220 Rocket 4.3 03:09:58 10° NNW 03:14:06 63° NE 03:14:06 63° NE
Cosmos 1937 Rocket 4.3 03:10:33 10° N 03:15:33 48° ENE 03:18:26 24° SE
Geosat 3.8 03:10:40 10° NNE 03:15:43 88° WNW 03:15:57 82° SW
Cosmos 2297 Rocket 2.5 03:12:43 10° NNW 03:18:20 63° ENE 03:21:32 26° SE
USA 161 4.0 03:21:36 23° NNE 03:21:36 23° NNE 03:23:04 10° N
Resurs 1-4 Rocket 3.3 03:15:45 10° NNE 03:20:30 34° E 03:22:30 26° SE
AQUA 3.8 03:16:42 10° N 03:21:22 69° WNW 03:21:22 69° WNW
NPP 3.7 03:18:41 10° N 03:23:58 58° WNW 03:24:27 56° W
Cosmos 2034 Rocket 3.9 03:23:22 50° S 03:25:07 83° E 03:31:21 10° N
ADEOS 3.5 03:19:53 10° NNE 03:25:08 82° ESE 03:25:56 64° S
Okean O Rocket 4.3 03:24:30 10° ENE 03:25:52 11° E 03:27:14 10° ESE
Cosmos 405 Rocket 3.2 03:23:17 10° N 03:26:39 59° NNW 03:26:39 59° NNW
ARIANE 5 R/B 3.0 03:23:24 10° NNE 03:28:26 53° E 03:29:52 41° SSE
SL-16 R/B 3.1 03:24:58 13° SE 03:30:15 54° ENE 03:36:14 10° N
Cosmos 1766 4.2 03:30:17 39° ESE 03:30:39 41° E 03:34:23 10° NNE
ATLAS 2AS CENTAUR R/B 4.4 03:26:31 10° WNW 03:30:13 19° W 03:30:13 19° W
ERS-1 4.4 03:29:45 10° NNE 03:34:51 81° ESE 03:35:50 58° S
OAO 1 4.5 03:34:50 60° S 03:34:58 60° S 03:40:21 10° E
Milstar 3 Cent rocket 3.4 03:36:28 27° SSE 03:36:28 27° SSE 03:41:27 10° ESE
Nadezhda 4 Rocket 4.3 03:32:00 10° N 03:38:10 66° E 03:42:21 22° SSE
Cosmos 1378 4.4 03:36:23 10° N 03:39:57 38° E 03:41:11 29° ESE
BREEZE-M DEB (TANK) 3.8 03:38:17 34° W 03:40:18 52° NW 03:43:15 10° NE
Meteor 1-22 Rocket 4.5 03:38:26 38° S 03:40:52 74° E 03:46:59 10° NNE
Meteor 1-24 Rocket 3.9 03:37:31 10° N 03:43:16 76° E 03:46:45 26° SSE
Spot 4 Rocket 4.0 03:38:55 10° N 03:44:05 76° WNW 03:45:14 54° SW
UNKNOWN OBJECT B 4.2 03:42:29 10° NNE 03:46:01 32° E 03:47:13 26° SE
SL-08 R/B 4.3 03:48:23 31° WNW 03:48:23 31° WNW 03:51:45 10° NNW
SL-24 R/B 4.3 03:48:50 36° SSE 03:50:53 89° ENE 03:55:29 10° NNW
ERS-2 2.9 03:48:04 10° N 03:51:13 40° NW 03:51:13 40° NW
Cosmos 1814 Rocket 4.3 03:53:05 45° WSW 03:54:18 55° WNW 03:59:35 10° N
IRS-1D 3.4 03:49:29 10° NNE 03:54:29 87° ESE 03:56:09 43° S
Cosmos 2298 Rocket 4.3 03:50:21 10° NNW 03:55:22 44° WSW 03:55:44 43° WSW
Cosmos 1953 3.5 03:54:25 25° SE 03:56:11 39° E 03:59:59 10° NNE
EO 1 Del DPAF 3.8 03:54:44 28° SE 03:56:33 57° ENE 04:00:22 10° N
SME Rocket 4.0 03:53:44 27° S 03:56:59 82° WSW 04:05:07 10° NNW
GPS 2-04 Rocket1 3.0 03:57:57 51° SSE 03:57:57 51° SSE 04:01:21 10° E
ISS -1.7 03:58:26 10° NW 04:01:29 36° NNE 04:04:32 10° ESE
Cosmos 1805 4.3 04:01:09 24° SSE 04:03:00 41° E 04:06:42 10° NNE
Cosmos 1441 Rocket 3.5 03:59:37 10° N 04:03:37 68° E 04:05:35 28° SSE
Cosmos 1656 3.9 04:03:16 38° WSW 04:05:14 57° WNW 04:10:50 10° NNE
Cosmos 1707 3.9 04:04:28 10° NNW 04:07:17 29° WNW 04:07:17 29° WNW
UNK 3.6 04:09:14 30° S 04:11:32 74° WSW 04:16:13 10° NNW
Cosmos 1634 Rocket 4.1 04:07:47 19° S 04:12:24 74° E 04:18:41 10° N
NOSS 7 (H) 4.1 04:15:21 67° WSW 04:15:42 80° WNW 04:19:00 10° NNE
CZ-2D R/B 2.1 04:12:18 10° N 04:17:45 72° WNW 04:20:34 29° SSW
Cosmos 990 Rocket 4.0 04:16:02 10° NNW 04:21:11 58° WSW 04:24:59 18° S
ATLAS CENTAUR R/B 2.8 04:19:27 25° W 04:21:28 34° NW 04:26:02 10° NNE
ASTRO E2 4.3 04:23:27 20° SSE 04:23:27 20° SSE 04:25:31 10° SE
CZ-2D R/B 3.7 04:19:21 10° NNE 04:23:42 75° E 04:26:27 23° S
Cosmos 1697 Rocket 3.0 04:24:08 28° SW 04:26:50 51° WNW 04:32:21 10° NNE
Cosmos 1092 Rocket 4.0 04:20:57 10° NNW 04:27:12 70° W 04:33:02 12° S
In-Cosmos 22 4.1 04:22:23 10° N 04:27:42 85° E 04:33:00 10° S
IRS-1C Rocket 4.4 04:24:13 10° NNE 04:29:27 66° ESE 04:34:03 13° S
CZ-2C R/B 4.4 04:25:40 10° SSE 04:30:16 57° ENE 04:34:49 10° N
Cosmos 1544 3.6 04:31:10 17° S 04:33:48 58° E 04:37:25 10° NNE
Cosmos 1980 Rocket 2.2 04:31:21 25° SSW 04:34:45 73° WNW 04:40:26 10° NNE
Cosmos 2227 Rocket 3.6 04:36:42 10° WNW 04:40:18 17° W 04:40:20 17° W
GEOS 3 Rocket 3.7 04:36:28 10° SSE 04:41:33 53° WSW 04:46:38 10° NW
Cosmos 2322 Rocket 2.8 04:40:31 10° S 04:45:57 53° ESE 04:51:24 10° NNE
Cosmos 1674 3.6 04:43:02 10° N 04:46:43 48° E 04:50:20 10° SSE
ARGOS Delta rocket 4.5 04:42:11 10° NNE 04:47:15 59° E 04:51:59 10° S
Abrixas 3.9 04:46:33 10° NW 04:49:29 41° NNE 04:52:25 10° E
Cosmos 1125 Rocket 3.4 04:45:33 10° NNW 04:50:46 78° WSW 04:55:57 10° SSE
Cosmos 841 Rocket 4.4 04:49:56 19° WSW 04:52:57 33° WNW 04:57:42 10° N
CZ-3 Stage 3 4.3 04:11:49 10° W 04:54:06 58° SSW 05:00:45 10° ESE
Cosmos 1500 Rocket 3.5 04:50:36 10° N 04:55:01 89° NE 04:59:23 10° S
Cosmos 2151 4.5 04:51:05 10° N 04:55:10 40° ENE 04:59:12 10° SSE
NOSS 3-4 (A) 4.2 04:49:00 10° NW 04:55:31 40° WSW 05:02:20 10° S
NOSS 3-4 (C) 4.2 04:49:06 10° NW 04:55:39 40° WSW 05:02:31 10° S
Cosmos 1470 2.8 04:54:40 10° S 04:58:36 81° E 05:02:34 10° N
Cosmos 1743 Rocket 3.7 04:55:31 10° NNW 04:59:45 52° W 05:03:58 10° S
PSLV R/B 3.8 04:56:21 10° N 05:00:09 57° WNW 05:03:12 14° SSW
Resurs 1-4 Rocket 3.2 04:55:47 10° N 05:00:12 28° WNW 05:03:34 15° WSW
CZ-4B R/B 2.8 04:56:51 10° NNE 05:00:48 84° ESE 05:04:32 10° S
Cosmos 2297 Rocket 3.7 04:58:25 10° WNW 05:01:46 16° W 05:03:14 15° WSW
Okean O Rocket 1.7 04:58:15 10° N 05:02:35 59° WNW 05:06:37 12° SSW
MOZ.5/SAFIR/RUBIN 5/SL-8 3.7 04:58:57 10° S 05:03:39 72° WSW 05:08:21 10° NNW
Cosmos 1437 3.3 05:01:59 10° NNW 05:05:08 39° W 05:08:16 10° SSW
ARIANE 5 R/B 4.2 05:03:42 10° NNW 05:07:07 18° WNW 05:10:12 11° WSW
Cosmos 2279 Rocket 4.0 05:01:34 10° SSW 05:07:47 70° W 05:14:03 10° N
SL-16 R/B 3.7 05:10:04 12° SW 05:14:09 22° W 05:18:48 10° NW
SL-16 R/B 2.2 05:12:53 10° SSW 05:18:34 86° WNW 05:24:16 10° NNE
Cosmos-2242 4.5 05:16:24 12° WSW 05:19:09 21° WNW 05:22:23 10° NNW
Cosmos 2221 3.1 05:15:47 10° S 05:19:58 60° E 05:24:12 10° NNE
Cosmos 332 Rocket 4.2 05:17:16 10° SW 05:21:50 47° WNW 05:26:31 10° N
Cosmos 1655 Rocket 4.4 05:20:19 10° NNW 05:26:22 45° W 05:32:22 10° SSW
Thor Agena Rocket 3.6 05:21:49 10° S 05:26:46 57° WSW 05:31:45 10° NNW
Cosmos 540 Rocket 4.1 05:25:05 10° SW 05:29:55 39° WNW 05:34:46 10° N
Meteor 1-31 Rocket 4.5 05:27:12 10° NNE 05:30:49 35° E 05:34:22 10° SSE
Cosmos 1953 4.3 05:30:45 10° WSW 05:32:50 14° WNW 05:34:55 10° NW
Cosmos 2266 Rocket 4.2 05:30:12 10° N 05:36:22 81° E 05:42:36 10° S
Cosmos 2263 Rocket 2.9 05:31:27 10° NNW 05:36:59 60° ENE 05:42:27 10° SE
GPS 2-04 Rocket1 3.0 05:33:29 10° W 05:37:14 44° SSW 05:40:48 10° ESE
ISS -2.0 05:35:13 10° W 05:37:46 21° SW 05:40:20 10° S
CZ-4B R/B 3.8 05:33:38 10° N 05:38:46 40° WNW 05:43:48 10° SW
PSLV R/B 3.5 05:36:01 10° N 05:40:15 72° WNW 05:44:29 10° SSW
Cosmos 1328 3.9 05:36:45 10° NNW 05:40:45 63° W 05:44:43 10° S
